| time (UTC) | temp C | wind direction | speed KPH | gust KPH | rain 1hr cm | rain 24hr cm | rain mn cm | humidity % | barometer mb |
| 20260504050013 | 15 | 122 | 3.2 | 30.6 | 0.00 | 0.00 | 0.00 | 70 | 978.2 |
| 20260504044504 | 15 | 122 | 6.4 | 27.4 | 0.00 | 0.00 | 0.00 | 69 | 978.3 |
| 20260504043004 | 15 | 103 | 9.7 | 22.5 | 0.00 | 0.00 | 0.00 | 69 | 978.3 |
| 20260504041502 | 15 | 98 | 12.9 | 24.1 | 0.00 | 0.00 | 0.00 | 70 | 978.3 |
| 20260504040003 | 15 | 121 | 9.7 | 19.3 | 0.00 | 0.00 | 0.00 | 70 | 978.3 |
| 20260504034502 | 15 | 120 | 8.0 | 27.4 | 0.00 | 0.00 | 0.00 | 70 | 978.3 |
| 20260504033002 | 15 | 97 | 3.2 | 22.5 | 0.00 | 0.00 | 0.00 | 71 | 978.4 |
| 20260504031702 | 15 | 86 | 9.7 | 29.0 | 0.00 | 0.00 | 0.00 | 70 | 978.5 |
| 20260504030059 | 15 | 94 | 11.3 | 30.6 | 0.00 | 0.00 | 0.00 | 72 | 978.5 |
| 20260504024556 | 15 | 171 | 6.4 | 19.3 | 0.00 | 0.00 | 0.00 | 74 | 978.6 |
| 20260504023055 | 14 | 310 | 8.0 | 22.5 | 0.00 | 0.00 | 0.00 | 75 | 978.9 |
| 20260504021555 | 14 | 90 | 12.9 | 29.0 | 0.00 | 0.00 | 0.00 | 74 | 978.9 |
| 20260504020127 | 15 | 77 | 14.5 | 33.8 | 0.00 | 0.00 | 0.00 | 75 | 979.1 |
| 20260504014601 | 14 | 98 | 17.7 | 35.4 | 0.00 | 0.00 | 0.00 | 78 | 979.2 |
| 20260504013058 | 13 | 94 | 16.1 | 32.2 | 0.00 | 0.00 | 0.00 | 79 | 979.4 |
| 20260504011547 | 13 | 97 | 17.7 | 30.6 | 0.00 | 0.00 | 0.00 | 79 | 979.5 |
| 20260504010047 | 13 | 42 | 11.3 | 25.7 | 0.00 | 0.00 | 0.00 | 81 | 979.6 |
| 20260504004616 | 13 | 113 | 12.9 | 24.1 | 0.00 | 0.00 | 0.00 | 80 | 979.8 |
| 20260504003050 | 13 | 103 | 11.3 | 24.1 | 0.00 | 0.00 | 0.00 | 79 | 980.0 |
| 20260504001616 | 13 | 105 | 9.7 | 30.6 | 0.00 | 0.00 | 0.00 | 77 | 980.0 |
| 20260504000045 | 13 | 87 | 8.0 | 24.1 | 0.00 | 0.00 | 0.00 | 79 | 979.9 |
| 20260503234542 | 13 | 112 | 9.7 | 22.5 | 0.00 | 0.00 | 0.00 | 80 | 979.8 |
| 20260503233043 | 13 | 84 | 3.2 | 11.3 | 0.00 | 0.00 | 0.00 | 80 | 980.1 |
| 20260503231540 | 13 | 96 | 4.8 | 16.1 | 0.00 | 0.00 | 0.00 | 80 | 980.1 |
| 20260503230047 | 13 | 101 | 4.8 | 12.9 | 0.00 | 0.00 | 0.00 | 81 | 980.0 |
| 20260503224535 | 12 | 92 | 1.6 | 12.9 | 0.00 | 0.00 | 0.00 | 83 | 979.9 |
| 20260503223035 | 12 | 113 | 6.4 | 16.1 | 0.00 | 0.00 | 0.00 | 83 | 979.9 |
| 20260503221532 | 11 | 112 | 0.0 | 8.0 | 0.00 | 0.00 | 0.00 | 87 | 979.9 |
| 20260503220041 | 11 | 113 | 1.6 | 4.8 | 0.00 | 0.00 | 0.00 | 90 | 979.6 |
| 20260503214530 | 10 | 87 | 0.0 | 0.0 | 0.00 | 0.00 | 0.00 | 94 | 979.9 |
| 20260503213028 | 9 | 90 | 0.0 | 0.0 | 0.00 | 0.00 | 0.00 | 92 | 979.9 |
| 20260503211528 | 9 | 89 | 0.0 | 1.6 | 0.00 | 0.00 | 0.00 | 93 | 979.8 |
| 20260503210027 | 10 | 89 | 0.0 | 0.0 | 0.00 | 0.00 | 0.00 | 90 | 979.6 |
| 20260503204526 | 10 | 89 | 0.0 | 4.8 | 0.00 | 0.00 | 0.00 | 90 | 979.4 |
| 20260503203043 | 9 | 99 | 0.0 | 0.0 | 0.00 | 0.00 | 0.00 | 91 | 979.4 |
| 20260503201528 | 9 | 98 | 0.0 | 3.2 | 0.00 | 0.00 | 0.00 | 91 | 979.4 |
| 20260503200023 | 10 | 107 | 0.0 | 3.2 | 0.00 | 0.00 | 0.00 | 91 | 979.2 |
| 20260503194535 | 10 | 127 | 0.0 | 4.8 | 0.00 | 0.00 | 0.00 | 92 | 979.0 |
| 20260503193020 | 10 | 98 | 1.6 | 3.2 | 0.00 | 0.00 | 0.00 | 92 | 979.1 |
| 20260503191518 | 10 | 102 | 1.6 | 4.8 | 0.00 | 0.00 | 0.00 | 92 | 979.2 |
| 20260503190033 | 10 | 89 | 0.0 | 4.8 | 0.00 | 0.00 | 0.00 | 91 | 979.3 |
| 20260503184522 | 10 | 90 | 0.0 | 4.8 | 0.00 | 0.00 | 0.00 | 93 | 979.5 |
| 20260503183013 | 10 | 99 | 0.0 | 4.8 | 0.00 | 0.00 | 0.00 | 94 | 979.6 |
| 20260503181511 | 10 | 115 | 3.2 | 6.4 | 0.00 | 0.00 | 0.00 | 96 | 979.6 |
| 20260503180011 | 10 | 93 | 0.0 | 3.2 | 0.00 | 0.00 | 0.00 | 95 | 979.8 |
| 20260503174610 | 10 | 90 | 0.0 | 3.2 | 0.00 | 0.00 | 0.00 | 94 | 979.9 |
| 20260503173008 | 9 | 94 | 0.0 | 0.0 | 0.00 | 0.00 | 0.00 | 95 | 980.0 |
| 20260503171507 | 9 | 98 | 0.0 | 0.0 | 0.00 | 0.00 | 0.00 | 93 | 979.9 |
| 20260503081524 | 13 | 101 | 6.4 | 11.3 | 0.00 | 0.00 | 0.00 | 88 | 979.1 |
| 20260503071508 | 14 | 69 | 0.0 | 9.7 | 0.00 | 0.00 | 0.00 | 95 | 978.8 |